KF4VX-15 Weather Reports


time (UTC)temp
C
wind
direction
speed
KPH
gust
KPH
rain 1hr
cm
rain 24hr
cm
rain mn
cm
humidity
%
barometer
mb
20260504040025 8 62 3.2 9.7 0.00 0.00 0.00 75 1017.6
20260504034524 8 62 3.2 8.0 0.00 0.00 0.00 74 1017.7
20260504033023 8 62 1.6 6.4 0.00 0.00 0.00 74 1017.8
20260504031524 8 62 1.6 4.8 0.00 0.00 0.00 77 1017.8
20260504030023 8 62 0.0 3.2 0.00 0.00 0.00 78 1018.0
20260504024521 8 62 0.0 0.0 0.00 0.00 0.00 76 1017.8
20260504023022 8 62 0.0 3.2 0.00 0.00 0.00 77 1017.6
20260504021521 9 62 3.2 6.4 0.00 0.00 0.00 77 1017.4
20260504020022 10 62 3.2 6.4 0.00 0.00 0.00 73 1017.3
20260504014538 10 62 4.8 8.0 0.00 0.00 0.00 75 1017.2
20260504013020 10 62 4.8 6.4 0.00 0.00 0.00 74 1017.0
20260504011520 10 62 3.2 4.8 0.00 0.00 0.00 72 1016.7
20260504010019 11 62 1.6 6.4 0.00 0.00 0.00 70 1016.6
20260504004518 11 62 1.6 3.2 0.00 0.00 0.00 69 1016.5
20260504003018 12 62 0.0 1.6 0.00 0.00 0.00 67 1016.3
20260504001521 13 62 0.0 1.6 0.00 0.00 0.00 60 1016.2
20260504000034 14 62 0.0 1.6 0.00 0.00 0.00 56 1016.0
20260503234516 17 62 0.0 1.6 0.00 0.00 0.00 47 1015.9
20260503233019 19 62 0.0 4.8 0.00 0.00 0.00 43 1015.8
20260503231515 20 62 3.2 8.0 0.00 0.00 0.00 30 1015.8
20260503230014 20 62 3.2 11.3 0.00 0.00 0.00 29 1015.9
20260503224512 20 62 3.2 14.5 0.00 0.00 0.00 31 1015.9
20260503223011 20 62 3.2 14.5 0.00 0.00 0.00 29 1016.0
20260503221511 20 62 6.4 14.5 0.00 0.00 0.00 29 1015.9
20260503220012 20 62 11.3 17.7 0.00 0.00 0.00 30 1016.1
20260503214521 20 63 11.3 20.9 0.00 0.00 0.00 24 1016.0
20260503213006 20 63 8.0 22.5 0.00 0.00 0.00 26 1016.1
20260503211504 20 63 1.6 20.9 0.00 0.00 0.00 32 1016.1
20260503210009 20 64 6.4 16.1 0.00 0.00 0.00 37 1016.2
20260503204610 19 65 4.8 16.1 0.00 0.00 0.00 34 1016.3
20260503203106 19 65 8.0 24.1 0.00 0.00 0.00 38 1016.6
20260503201557 19 60 4.8 17.7 0.00 0.00 0.00 37 1016.9
20260503200055 18 60 8.0 22.5 0.00 0.00 0.00 38 1017.0
20260503194609 18 60 4.8 14.5 0.00 0.00 0.00 36 1017.4
20260503193052 18 60 4.8 17.7 0.00 0.00 0.00 35 1017.8
20260503191556 18 60 8.0 17.7 0.00 0.00 0.00 34 1018.1
20260503190058 18 60 8.0 19.3 0.00 0.00 0.00 39 1018.2
20260503184551 18 59 6.4 14.5 0.00 0.00 0.00 39 1018.4
20260503183051 17 62 4.8 17.7 0.00 0.00 0.00 37 1018.6
20260503181543 16 64 3.2 11.3 0.00 0.00 0.00 38 1018.7
20260503180051 16 64 4.8 22.5 0.00 0.00 0.00 38 1018.9
20260503174540 16 61 9.7 22.5 0.00 0.00 0.00 39 1018.9
20260503173108 16 59 4.8 19.3 0.00 0.00 0.00 39 1019.0
20260503171543 16 61 8.0 17.7 0.00 0.00 0.00 42 1019.3
20260503130107 8 61 4.8 12.9 0.00 0.00 0.00 78 1020.1
20260503081512 3 60 0.0 0.0 0.00 0.00 0.00 89 1017.6
20260503071601 3 60 0.0 0.0 0.00 0.00 0.00 88 1017.0
20260503054551 4 61 1.6 4.8 0.00 0.00 0.00 88 1016.7
20260503053050 4 60 0.0 3.2 0.00 0.00 0.00 87 1016.8
20260503051548 4 60 0.0 1.6 0.00 0.00 0.00 87 1016.8
20260503050047 4 60 0.0 1.6 0.00 0.00 0.00 86 1016.7
20260503044547 4 60 0.0 1.6 0.00 0.00 0.00 85 1016.7
20260503043042 5 60 0.0 0.0 0.00 0.00 0.00 84 1016.5
20260503041541 5 60 0.0 1.6 0.00 0.00 0.00 83 1016.5